Weather History for Poplar Bluff, MO

Change the Weather History Date:

Wednesday, May 22, 2013

  Actual Average Record
Temperature  
Mean Temperature 71 °F -  
Max Temperature 79 °F 80 °F 97 °F (1925)
Min Temperature 63 °F 57 °F 41 °F (1929)
Cooling Degree Days 6    
Growing Degree Days 21 (Base 50)    
Moisture  
Dew Point 61 °F    
Average Humidity 72    
Maximum Humidity 90    
Minimum Humidity 56    
Precipitation  
Precipitation 0.01 in - - ()
Sea Level Pressure  
Sea Level Pressure 29.80 in    
Wind  
Wind Speed 8 mph (SW)    
Max Wind Speed 15 mph    
Max Gust Speed 21 mph    
Visibility 10 miles    
Events      
Averages and records for this station are not official NWS values.
T = Trace of Precipitation, MM = Missing Value Source: NWS Daily Summary

Daily Weather History Graph

Daily Weather History Graph

Search for Another Location

Airport:

Trip Planner

Search our weather history database for the weather conditions in past years. The results will help you decide how hot, cold, wet, or windy it might be!

Date:

Astronomy

May. 22, 2013 Rise Set
Actual Time 5:48 AM CDT 8:07 PM CDT
Civil Twilight 5:19 AM CDT 8:37 PM CDT
Nautical Twilight 4:42 AM CDT 9:13 PM CDT
Astronomical Twilight 4:03 AM CDT 9:53 PM CDT
Moon 5:33 PM CDT (5/22) 3:48 AM CDT (5/22)
Length of Visible Light 15h 18m
Length of Day
14h 19m
Waxing Gibbous, 91% of the Moon is Illuminated
May 22
Waxing Gibbous
May 24
Full
May 31
Last Quarter
Jun 8
New
Jun 16
First Quarter

Hourly Weather History & Observations

Time (CDT) Temp. Dew Point Humidity Pressure Visibility Wind Dir Wind Speed Gust Speed Precip Events Conditions
12:53 AM 66.0 °F 60.1 °F 81% 29.80 in 10.0 mi West 5.8 mph - 0.01 in   Clear
1:53 AM 64.9 °F 61.0 °F 87% 29.78 in 10.0 mi WSW 5.8 mph - N/A   Clear
2:53 AM 63.0 °F 60.1 °F 90% 29.76 in 10.0 mi South 4.6 mph - N/A   Clear
3:53 AM 63.0 °F 60.1 °F 90% 29.75 in 10.0 mi South 6.9 mph - N/A   Clear
4:53 AM 64.0 °F 60.1 °F 87% 29.75 in 10.0 mi South 6.9 mph - N/A   Mostly Cloudy
5:53 AM 64.9 °F 60.1 °F 84% 29.78 in 10.0 mi SW 6.9 mph - 0.00 in   Overcast
6:53 AM 66.0 °F 60.1 °F 81% 29.79 in 10.0 mi SW 9.2 mph - N/A   Partly Cloudy
7:53 AM 66.0 °F 61.0 °F 84% 29.79 in 10.0 mi SW 8.1 mph - N/A   Mostly Cloudy
8:53 AM 69.1 °F 61.0 °F 75% 29.81 in 10.0 mi SW 9.2 mph - N/A   Mostly Cloudy
9:53 AM 71.1 °F 60.1 °F 68% 29.82 in 10.0 mi SW 10.4 mph - N/A   Clear
10:53 AM 73.0 °F 62.1 °F 68% 29.82 in 10.0 mi SSW 10.4 mph - N/A   Partly Cloudy
11:53 AM 73.9 °F 62.1 °F 66% 29.83 in 10.0 mi SSW 10.4 mph - N/A   Partly Cloudy
12:53 PM 75.9 °F 61.0 °F 60% 29.81 in 10.0 mi SSW 12.7 mph - N/A   Partly Cloudy
1:53 PM 77.0 °F 62.1 °F 60% 29.81 in 10.0 mi SSW 15.0 mph 20.7 mph N/A   Scattered Clouds
2:53 PM 79.0 °F 62.1 °F 56% 29.81 in 10.0 mi SW 11.5 mph - N/A   Mostly Cloudy
3:53 PM 78.1 °F 63.0 °F 60% 29.79 in 10.0 mi SSW 13.8 mph 20.7 mph N/A   Scattered Clouds
4:53 PM 77.0 °F 62.1 °F 60% 29.79 in 10.0 mi SSW 11.5 mph - N/A   Scattered Clouds
5:53 PM 78.1 °F 62.1 °F 58% 29.79 in 10.0 mi SSW 13.8 mph - N/A   Clear
6:53 PM 77.0 °F 61.0 °F 58% 29.79 in 10.0 mi SW 13.8 mph - N/A   Partly Cloudy
7:53 PM 73.9 °F 63.0 °F 68% 29.80 in 10.0 mi SSW 6.9 mph - N/A   Clear
8:53 PM 72.0 °F 60.1 °F 66% 29.81 in 10.0 mi SW 5.8 mph - N/A   Clear
9:53 PM 69.1 °F 62.1 °F 78% 29.84 in 10.0 mi SW 3.5 mph - N/A   Clear
10:53 PM 69.1 °F 61.0 °F 75% 29.86 in 10.0 mi WNW 3.5 mph - N/A   Clear
11:53 PM 68.0 °F 59.0 °F 73% 29.89 in 10.0 mi NW 5.8 mph - N/A   Partly Cloudy